Weather observations for the past three days for
Beaufort Smith Field
Imperial (Metric)
Date Time (edt) Wind (mph) Vis. (mi.) Weather Sky Cond. Temperature (ºF) Relative Humidity Wind Chill (°F) Heat Index (°F) Pressure Precipitation (in)
Air Dwpt 6 hour altimeter (in) sea level (mb) 1 hr 3 hr 6 hr
Max. Min.
25 15:58 SW 16 10.00 Fair CLR 87.1 77 72% 99 30.12 1020.0
25 14:58 SW 15 10.00 Fair CLR 87.1 75.9 70% 98 30.13 1020.5
25 13:58 SW 13 10.00 Fair CLR 87.1 75.9 88 79 70% 98 30.16 1021.3 0.02
25 12:58 SW 12 10.00 Fair CLR 84.9 75.9 75% 94 30.18 1021.9
25 11:58 SW 9 10.00 Fair CLR 82.9 73.9 74% 89 30.19 1022.4
25 10:58 SW 8 10.00 Fair CLR 82 73 74% 87 30.2 1022.7 0.02
25 09:58 W 10 10.00 Fair CLR 82 73.9 77% 88 30.2 1022.7
25 08:58 W 12 10.00 Fair CLR 81 73.9 79% 86 30.2 1022.6 0.02
25 07:58 SW 13 10.00 Mostly Cloudy BKN024 84.9 79 84.9 82.9 82% 98 30.2 1022.8
25 06:58 SW 12 10.00 Fair CLR 84 78.1 82% 95 30.2 1022.5
25 05:58 SW 10 10.00 Fair CLR 82.9 78.1 85% 93 30.19 1022.3
25 04:58 SW 13 10.00 Fair CLR 82.9 78.1 85% 93 30.19 1022.2
25 03:58 SW 16 10.00 Fair CLR 82.9 78.1 85% 93 30.19 1022.2
25 02:58 SW 14 10.00 A Few Clouds FEW032 84 78.1 82% 95 30.2 1022.6
25 01:58 SW 15 10.00 Mostly Cloudy BKN033 84 78.1 84.9 84 82% 95 30.21 1022.8
25 00:58 SW 15 10.00 Mostly Cloudy BKN025 84 79 85% 96 30.22 1023.3
24 23:58 SW 14 10.00 Partly Cloudy SCT024 84 79 85% 96 30.21 1023.2
24 22:58 SW 14 10.00 Fair CLR 84 79 85% 96 30.22 1023.2
24 21:58 SW 14 10.00 Fair CLR 84 79 85% 96 30.22 1023.3
24 20:58 S 12 10.00 Fair CLR 84 79 85% 96 30.19 1022.5
24 19:58 S 16 10.00 Fair CLR 84.9 79 88 84.9 82% 98 30.18 1021.9
24 18:58 SW 16 10.00 Fair CLR 84.9 78.1 80% 97 30.17 1021.6
24 17:58 SW 15 G 22 10.00 Fair CLR 84.9 78.1 80% 97 30.17 1021.8
24 16:58 S 16 10.00 Fair CLR 86 78.1 77% 98 30.18 1021.8
24 15:58 S 17 10.00 Fair CLR 86 77 75% 97 30.18 1021.8
24 14:58 SW 18 G 23 10.00 A Few Clouds FEW013 88 78.1 73% 102 30.19 1022.4
24 13:58 SW 16 10.00 Fair CLR 88 78.1 88 79 73% 102 30.21 1022.9
24 12:58 SW 17 10.00 Fair CLR 87.1 75.9 70% 98 30.21 1023.1
24 11:58 SW 14 10.00 Fair CLR 84.9 75 72% 93 30.22 1023.4
24 10:58 SW 13 10.00 Fair CLR 82.9 73.9 74% 89 30.21 1022.9
24 09:58 SW 13 10.00 Fair CLR 82 73.9 77% 88 30.21 1023.0
24 08:58 S 12 10.00 Fair CLR 80.1 71.1 74% 84 30.2 1022.7
24 07:58 W 9 10.00 Mostly Cloudy BKN110 79 71.1 84 78.1 77% 82 30.19 1022.4 0.01 0.01
24 06:58 W 10 G 22 10.00 Overcast FEW016 BKN020 OVC060 84 79 85% 96 30.19 1022.2
24 05:58 SW 13 10.00 Partly Cloudy SCT024 84 79 85% 96 30.18 1021.9
24 04:58 SW 15 G 24 10.00 A Few Clouds FEW016 84 78.1 82% 95 30.17 1021.5
24 03:58 SW 15 10.00 A Few Clouds FEW020 84 78.1 82% 95 30.17 1021.8
24 02:58 SW 15 10.00 Fair CLR 84 78.1 82% 95 30.16 1021.4
24 01:58 SW 14 10.00 Fair CLR 84 78.1 84 84 82% 95 30.16 1021.4
24 00:58 S 14 10.00 Fair CLR 84 79 85% 96 30.17 1021.7
23 23:58 S 12 10.00 Fair CLR 84 78.1 82% 95 30.17 1021.6
23 22:58 SW 12 10.00 Fair CLR 84 78.1 82% 95 30.16 1021.3
23 21:58 SW 10 10.00 Fair CLR 84 78.1 82% 95 30.15 1021.0
23 20:58 S 13 10.00 Fair CLR 84 78.1 82% 95 30.12 1020.0
23 19:58 S 12 10.00 Fair CLR 84 77 88 84 80% 94 30.12 1020.1
23 18:58 S 13 10.00 A Few Clouds FEW014 84.9 77 77% 95 30.1 1019.4
23 17:58 S 14 10.00 Fair CLR 87.1 77 72% 99 30.08 1018.6
23 16:58 S 12 10.00 A Few Clouds FEW018 87.1 78.1 75% 100 30.09 1018.8
23 15:58 S 9 10.00 A Few Clouds FEW018 87.1 77 72% 99 30.1 1019.4
23 14:58 S 10 10.00 A Few Clouds FEW010 FEW014 87.1 78.1 75% 100 30.12 1019.8
23 13:58 S 13 10.00 Fair CLR 86 77 89.1 84.9 75% 97 30.12 1020.0
23 12:58 SW 13 10.00 Fair CLR 88 79 75% 103 30.13 1020.5
23 11:58 S 12 10.00 Fair CLR 87.1 78.1 75% 100 30.14 1020.8
23 10:58 S 12 10.00 Fair CLR 87.1 79 77% 101 30.13 1020.3
23 09:58 SW 10 10.00 Fair CLR 87.1 78.1 75% 100 30.13 1020.2
23 08:58 S 9 10.00 Fair CLR 86 79 80% 100 30.13 1020.3
23 07:58 SW 10 10.00 Fair CLR 84.9 78.1 84.9 82 80% 97 30.12 1020.1
23 06:58 S 10 10.00 Fair CLR 82.9 78.1 85% 93 30.11 1019.7
23 05:58 SW 9 10.00 Fair CLR 82.9 77 82% 92 30.1 1019.2
23 04:58 S 12 10.00 Fair CLR 82.9 78.1 85% 93 30.08 1018.6
23 03:58 S 10 10.00 Fair CLR 82.9 78.1 85% 93 30.08 1018.5
23 02:58 SW 13 10.00 Fair CLR 82.9 78.1 85% 93 30.07 1018.4
23 01:58 SW 12 10.00 Fair CLR 82.9 78.1 82.9 82.9 85% 93 30.08 1018.6
23 00:58 SW 12 10.00 Fair CLR 82.9 78.1 85% 93 30.09 1019.0
22 23:58 SW 13 10.00 Fair CLR 82.9 78.1 85% 93 30.1 1019.4
22 22:58 SW 13 10.00 Fair CLR 82.9 78.1 85% 93 30.1 1019.2
22 21:58 SW 12 10.00 Fair CLR 82.9 78.1 85% 93 30.08 1018.7
22 20:58 S 12 10.00 Fair CLR 82.9 77 82% 92 30.06 1017.9
22 19:58 S 12 10.00 Fair CLR 82.9 75.9 86 82.9 79% 91 30.04 1017.4
22 18:58 S 14 10.00 Fair CLR 84 75.9 77% 93 30.04 1017.4
22 17:58 S 12 10.00 Fair CLR 82.9 75 77% 90 30.02 1016.6
22 16:58 S 14 10.00 Fair CLR 84.9 75 72% 93 30.03 1016.9
Date Time (edt) Wind (mph) Vis. (mi.) Weather Sky Cond. Air Dwpt Max. Min. Relative Humidity Wind Chill (°F) Heat Index (°F) altimeter (in) sea level (mb) 1 hr 3 hr 6 hr
6 hour
Temperature (ºF) Pressure Precipitation (in)